Location: Banska Bystrica
(48.7333°N, 19.1500°E)
Time: 10:51:53
(UTC+01:00)

ISS - Pass Details

Date: 25 January 2021
Orbit: 417 x 422 km, 51.6° (Epoch: 07 March)

Event Time Altitude Azimuth Distance (km) Brightness Sun altitude
Rises 19:34:39 0° 283° (WNW) 2,375 1.2 -30.2°
Reaches altitude 10° 19:36:47 10° 288° (WNW) 1,511 -0.1 -30.5°
Enters shadow 19:37:18 14° 290° (WNW) 1,310 -0.5 -30.6°
